Temp
1 1 1 1 1 1 2 2 3 3 3 3 3 3 3 3 3 4 4 4 4 4 4 4 4 4 4 4 4 4 4 4 4 5 5 5 5 5 5 5 5 4
1 1 1 1 1 1 2 2 2 3 3 3 3 3 3 3 4 4 4 4 4 4 4 4 4 5 5 5 4 4 4 4 4 4 4 5 5 5 5 5 5 5
1 1 1 1 1 1 2 2 2 3 3 3 3 3 3 3 4 4 4 4 4 4 4 4 4 4 5 5 5 4 4 4 4 4 4 4 4 5 5 5 5 5
1 1 1 1 1 1 2 2 2 3 3 3 3 3 3 3 4 4 4 4 4 4 4 4 4 4 4 4 4 4 4 4 4 4 4 4 4 4 4 5 5 4
1 1 1 1 1 1 2 2 2 3 3 3 3 3 3 3 3 3 4 4 4 4 4 4 4 4 4 4 4 4 4 4 4 4 4 4 4 4 4 4 4 4
1 1 1 1 1 1 2 2 2 3 3 3 3 3 3 3 3 3 3 4 4 4 4 4 4 4 4 4 4 4 4 4 4 4 4 4 4 4 4 4 4 4
1 1 1 1 1 1 1 2 2 2 2 2 3 3 3 3 3 3 3 4 4 4 4 4 4 4 4 4 4 3 3 3 4 4 4 4 4 4 4 4 4 4
1 1 1 1 1 1 1 2 2 2 2 2 3 3 3 3 2 3 3 3 3 3 3 3 3 3 3 3 3 3 3 3 3 3 4 4 4 4 4 4 4 3
1 1 1 1 1 1 1 2 2 2 2 2 3 3 3 2 2 2 2 3 3 3 3 3 3 3 3 3 3 3 3 3 3 3 3 3 4 4 4 4 4 3
1 1 1 1 1 1 2 2 2 2 2 2 2 3 2 2 2 2 2 2 2 2 2 2 2 2 2 2 2 2 2 2 3 3 3 3 3 3 4 4 3 3
1 1 1 1 1 1 2 2 2 2 2 3 3 2 2 2 1 1 2 2 2 2 2 2 2 2 2 2 2 2 2 2 2 2 3 3 3 3 3 3 3 3
1 1 1 1 1 2 2 2 2 2 2 3 3 2 2 2 1 1 1 1 1 1 1 1 1 1 1 1 1 1 1 1 1 2 2 2 3 3 3 3 3 3
1 1 1 1 1 2 2 2 2 2 2 3 3 2 2 2 1 1 1 1 1 1 1 1 1 1 1 0 0 0 1 1 1 1 2 2 2 2 3 3 2 2
1 1 1 1 1 2 2 2 2 2 2 2 2 2 2 2 1 1 1 1 0 0 0 0 0 0 0 0 0 0 0 0 1 1 1 2 2 2 2 2 2 2
1 1 1 1 1 1 1 1 2 2 2 2 2 3 3 2 2 1 1 1 0 0 0 0 0 -0 -0 -0 -0 -0 0 0 0 1 1 1 2 2 2 2 2 2
1 1 1 1 1 1 1 1 1 2 2 2 2 2 3 2 2 2 1 1 1 0 0 0 -0 -0 -0 -0 -0 -0 -0 -0 0 0 1 1 1 1 2 1 1 1
1 1 1 1 1 1 1 1 1 1 2 2 2 2 2 2 2 2 2 2 1 1 0 0 -0 -0 -0 -0 -0 -0 -0 -0 -0 0 0 1 1 1 1 1 1 1
1 1 1 1 1 1 1 1 1 1 2 2 2 2 2 2 2 2 2 2 1 1 0 0 -0 -0 -0 -0 -0 -0 -0 -0 -0 -0 0 0 0 1 1 1 1 0
0 0 0 0 1 1 1 1 1 1 1 1 2 2 2 2 2 2 2 2 2 1 1 0 -0 -0 -0 -0 -0 -0 -0 -0 -0 -0 -0 0 0 0 0 0 0 -0
-0 -0 -0 0 0 0 0 1 1 1 1 1 1 1 2 2 2 2 2 2 2 1 1 1 0 -0 -0 -0 -0 -0 -0 -0 -0 -0 -0 -0 -0 -0 -0 0 0 -0
-0 -0 -0 -0 -0 0 0 1 1 1 1 1 1 1 1 1 2 2 2 2 2 1 1 1 0 0 -0 -0 -0 -0 -0 -0 -0 -0 -0 -0 -0 -0 -0 -0 -0 -0
-0 -1 -1 -1 -0 -0 0 0 1 1 1 1 1 1 1 1 1 1 2 2 2 1 1 1 1 0 -0 -0 -0 -0 -0 -0 -0 -0 -0 -0 -0 -0 -0 -1 -1 -0
-0 -1 -1 -1 -0 -0 -0 0 0 0 1 1 1 1 1 1 1 1 1 1 1 1 1 1 1 0 -0 -0 -0 -0 -0 -0 -0 -0 -0 -0 -0 -0 -0 -1 -1 -1
-0 -1 -1 -1 -1 -1 -0 -0 0 0 0 1 1 1 1 1 1 1 1 1 1 1 1 1 1 0 -0 -0 -0 -0 -0 -0 -0 -0 -0 -0 -0 -0 -1 -1 -1 -1
-1 -1 -1 -1 -1 -1 -1 -0 -0 0 0 0 1 1 1 1 1 1 1 1 1 1 1 1 1 0 -0 -0 -0 -0 -0 -0 -0 -0 -0 -0 -0 -0 -1 -1 -1 -1
-1 -1 -1 -1 -1 -1 -1 -1 -0 -0 -0 0 0 0 1 1 1 1 1 1 1 1 1 0 0 0 0 -0 -0 -0 -0 -0 -0 -0 -0 -0 -0 -0 -1 -1 -1 -1
Height
3131 3130 3128 3127 3125 3123 3122 3120 3120 3119 3118 3117 3117 3116 3116 3115 3115 3115 3114 3114 3113 3112 3111 3110 3110 3109 3109 3110 3110 3111 3111 3111 3112 3112 3112 3112 3112 3112 3113 3113 3113 3114
3130 3129 3127 3126 3124 3123 3121 3120 3118 3118 3117 3116 3115 3115 3114 3114 3113 3113 3113 3113 3112 3111 3110 3109 3108 3107 3107 3107 3107 3108 3108 3108 3109 3109 3110 3110 3110 3110 3110 3110 3110 3111
3130 3128 3127 3125 3124 3122 3120 3119 3117 3117 3115 3114 3114 3113 3113 3112 3112 3112 3112 3111 3110 3110 3109 3108 3107 3106 3106 3105 3105 3105 3105 3105 3106 3106 3106 3107 3107 3107 3108 3108 3108 3108
3129 3127 3126 3125 3123 3121 3120 3118 3116 3116 3114 3112 3112 3112 3111 3111 3110 3110 3110 3109 3108 3108 3107 3106 3106 3105 3105 3104 3104 3104 3103 3102 3102 3103 3103 3103 3104 3105 3105 3105 3105 3105
3128 3127 3125 3124 3122 3120 3119 3117 3116 3114 3113 3112 3111 3110 3110 3109 3109 3109 3108 3107 3107 3106 3105 3104 3103 3103 3103 3103 3103 3102 3101 3100 3100 3100 3100 3100 3100 3101 3101 3102 3102 3102
3127 3126 3124 3123 3121 3120 3118 3116 3115 3113 3112 3111 3110 3109 3108 3108 3107 3107 3106 3106 3105 3104 3103 3102 3101 3101 3101 3100 3100 3100 3100 3099 3098 3098 3098 3097 3097 3097 3098 3098 3099 3099
3126 3124 3123 3122 3120 3118 3117 3115 3114 3112 3111 3110 3109 3108 3107 3107 3106 3105 3105 3104 3103 3102 3101 3100 3099 3099 3098 3097 3097 3097 3097 3097 3097 3096 3096 3095 3095 3094 3095 3095 3096 3096
3124 3123 3122 3121 3119 3117 3115 3114 3113 3111 3110 3109 3107 3107 3106 3106 3105 3104 3103 3102 3101 3100 3099 3098 3097 3097 3096 3095 3095 3094 3094 3093 3094 3094 3093 3093 3092 3092 3092 3092 3093 3093
3123 3122 3120 3119 3118 3116 3114 3113 3111 3110 3109 3107 3106 3105 3105 3104 3104 3103 3101 3100 3099 3098 3097 3096 3095 3095 3094 3093 3092 3092 3091 3090 3090 3090 3090 3090 3089 3090 3090 3090 3090 3090
3121 3120 3119 3118 3116 3114 3113 3112 3110 3108 3107 3106 3105 3104 3103 3103 3102 3101 3100 3099 3098 3097 3096 3095 3094 3092 3091 3090 3090 3089 3088 3088 3087 3087 3087 3086 3086 3087 3087 3087 3087 3087
3120 3119 3117 3116 3115 3113 3112 3110 3108 3107 3106 3104 3103 3102 3101 3101 3100 3099 3098 3097 3096 3095 3094 3093 3092 3091 3090 3089 3088 3087 3086 3085 3085 3084 3084 3083 3083 3083 3084 3084 3084 3085
3119 3118 3116 3115 3113 3112 3110 3108 3107 3105 3104 3103 3102 3101 3100 3099 3099 3098 3097 3096 3095 3094 3093 3092 3090 3089 3088 3087 3086 3085 3084 3083 3082 3082 3081 3081 3081 3081 3081 3081 3081 3082
3118 3117 3115 3114 3112 3110 3108 3107 3105 3104 3102 3101 3100 3099 3098 3097 3097 3096 3095 3094 3093 3092 3091 3090 3089 3087 3086 3085 3084 3083 3082 3081 3080 3079 3079 3078 3078 3078 3078 3078 3078 3079
3116 3115 3114 3112 3111 3109 3107 3105 3104 3103 3101 3099 3098 3097 3096 3095 3095 3094 3093 3092 3091 3090 3089 3088 3087 3086 3085 3084 3083 3082 3081 3080 3078 3077 3077 3076 3076 3076 3075 3075 3076 3077
3115 3114 3112 3111 3109 3107 3105 3104 3103 3101 3100 3098 3097 3096 3094 3094 3093 3092 3091 3090 3089 3088 3087 3086 3085 3084 3083 3082 3081 3080 3079 3078 3077 3076 3075 3074 3073 3073 3073 3073 3073 3074
3113 3112 3110 3109 3107 3105 3104 3102 3101 3100 3098 3097 3095 3094 3093 3092 3091 3090 3089 3088 3087 3086 3085 3085 3084 3082 3081 3081 3080 3079 3078 3077 3075 3074 3073 3072 3072 3071 3071 3071 3071 3072
3112 3110 3109 3107 3105 3104 3102 3101 3099 3098 3097 3096 3094 3093 3091 3090 3089 3088 3087 3085 3084 3084 3083 3083 3082 3081 3080 3079 3078 3078 3077 3075 3074 3073 3072 3071 3070 3069 3069 3069 3070 3071
3110 3108 3107 3106 3104 3103 3101 3100 3098 3097 3095 3094 3092 3091 3090 3088 3087 3086 3085 3083 3082 3081 3081 3080 3080 3079 3078 3077 3077 3076 3075 3074 3073 3071 3070 3069 3069 3068 3068 3068 3068 3070
3108 3107 3105 3104 3103 3101 3100 3098 3097 3095 3094 3092 3091 3089 3088 3087 3085 3084 3083 3081 3080 3079 3078 3078 3077 3077 3076 3076 3075 3074 3074 3072 3071 3070 3069 3068 3067 3067 3066 3066 3066 3068
3107 3106 3104 3103 3101 3100 3099 3097 3096 3094 3092 3091 3089 3088 3086 3085 3083 3082 3080 3079 3078 3076 3075 3075 3075 3075 3074 3074 3073 3073 3072 3071 3070 3069 3068 3067 3066 3065 3065 3064 3064 3065
3105 3104 3103 3101 3100 3099 3097 3096 3094 3092 3091 3089 3088 3086 3085 3083 3082 3080 3078 3077 3075 3074 3073 3072 3072 3072 3072 3072 3071 3071 3070 3069 3068 3067 3067 3066 3065 3064 3063 3063 3062 3062
3104 3103 3101 3100 3099 3097 3096 3094 3092 3091 3089 3088 3086 3084 3083 3081 3080 3078 3077 3075 3073 3072 3070 3070 3070 3070 3070 3069 3069 3068 3068 3067 3067 3066 3065 3064 3063 3062 3061 3061 3060 3060
3102 3101 3100 3098 3097 3095 3094 3092 3091 3089 3088 3086 3084 3083 3081 3079 3078 3076 3075 3073 3071 3070 3068 3067 3067 3067 3067 3067 3066 3066 3066 3065 3065 3064 3063 3062 3062 3061 3060 3059 3059 3058
3100 3099 3098 3097 3095 3094 3092 3091 3089 3087 3086 3084 3083 3081 3079 3077 3076 3075 3073 3071 3070 3068 3066 3065 3065 3064 3064 3064 3064 3063 3063 3063 3063 3062 3061 3061 3060 3060 3059 3058 3057 3057
3099 3097 3096 3095 3093 3092 3090 3089 3087 3085 3084 3082 3081 3079 3077 3076 3074 3073 3071 3069 3068 3066 3064 3063 3063 3062 3061 3061 3061 3061 3060 3060 3060 3060 3059 3059 3059 3058 3057 3056 3055 3055
3097 3096 3095 3093 3092 3090 3089 3087 3085 3084 3082 3080 3079 3077 3075 3074 3072 3071 3069 3068 3066 3064 3063 3061 3060 3059 3059 3059 3058 3058 3058 3058 3058 3058 3058 3057 3057 3057 3056 3054 3054 3053
Wind_Speed
18 19 21 22 22 20 18 17 16 15 14 13 12 11 12 12 11 11 10 10 10 11 12 13 13 13 13 13 13 12 13 13 13 14 15 16 17 18 19 20 21 22
18 20 22 24 23 20 18 18 17 17 15 14 13 12 12 12 12 11 11 10 10 10 11 12 14 14 14 14 14 14 14 13 13 13 14 16 17 18 19 20 21 22
18 20 22 23 22 20 18 17 18 17 16 15 14 12 12 12 11 11 10 10 10 10 11 12 13 15 15 15 14 14 15 15 14 14 14 15 16 17 18 20 21 22
18 20 22 22 21 20 18 17 17 17 16 16 15 13 12 11 10 10 9 9 10 10 10 11 13 14 15 16 15 15 16 16 16 15 15 15 15 16 17 19 21 22
18 20 21 20 20 20 18 17 17 17 16 16 16 13 12 11 10 10 9 10 10 10 10 11 12 13 14 15 15 15 16 18 18 17 17 16 16 16 17 18 20 22
18 19 20 19 19 19 19 17 16 16 15 15 15 14 13 11 11 11 11 11 11 11 11 11 12 13 13 14 15 15 16 18 19 19 18 17 17 17 17 17 18 20
18 19 20 19 18 18 18 17 16 16 15 15 14 14 13 12 12 13 13 13 12 12 12 12 12 13 13 14 15 16 16 17 18 19 20 19 19 19 18 17 18 19
18 20 20 18 17 16 17 16 16 16 16 15 14 13 13 12 12 13 14 14 13 13 13 13 13 13 13 14 15 16 17 18 18 19 20 20 20 20 19 18 18 18
19 20 20 18 17 16 16 14 15 16 16 15 14 13 12 12 12 14 14 14 13 13 13 13 13 13 14 14 14 15 16 18 19 19 19 20 20 20 20 19 19 19
19 20 20 18 17 16 15 13 14 15 15 15 13 13 12 12 12 14 14 14 13 13 13 13 13 13 14 15 15 15 15 16 18 19 19 19 19 19 19 19 19 20
19 20 20 19 17 16 14 12 14 15 14 14 13 13 12 12 12 13 14 14 13 13 13 12 12 12 13 14 15 16 16 15 16 17 19 19 19 18 18 19 19 20
19 19 20 19 17 15 13 13 14 14 14 14 13 12 12 12 12 12 13 14 13 12 13 12 12 12 13 14 14 15 16 15 15 16 17 18 18 18 18 18 19 20
19 19 19 18 17 15 14 14 14 14 14 14 13 12 12 12 12 12 13 13 13 13 12 12 12 12 12 13 14 14 15 14 14 14 15 16 16 17 17 17 18 20
19 19 19 18 17 16 15 15 15 15 14 14 14 13 12 12 12 12 13 13 13 13 13 12 11 12 12 13 13 14 14 13 13 13 13 14 15 15 16 17 18 21
18 18 19 19 18 17 17 16 16 15 14 14 14 13 13 13 13 13 13 13 13 13 13 12 11 11 12 12 12 13 13 12 12 11 12 13 14 15 16 17 17 21
17 18 19 19 19 18 18 17 17 16 15 13 13 13 13 13 13 14 14 14 14 13 13 12 11 11 11 11 11 12 12 12 11 10 11 11 13 14 16 16 16 20
17 17 18 19 19 19 18 18 18 17 16 15 14 13 13 14 14 14 15 15 15 14 13 12 11 10 11 11 11 11 11 11 10 10 10 10 12 13 15 16 16 20
17 17 18 18 18 18 18 18 18 18 17 16 15 15 15 14 15 15 15 15 15 15 14 13 11 10 10 11 11 11 10 10 10 10 10 10 11 12 13 15 16 18
16 16 16 17 17 17 17 17 17 17 17 17 17 16 16 16 16 15 15 15 15 15 14 13 12 11 10 11 12 11 10 10 10 10 10 10 10 10 11 13 16 19
15 15 16 16 17 17 17 17 17 17 17 17 17 17 17 17 17 16 16 15 15 15 14 13 12 11 11 11 13 12 11 10 9 9 9 9 9 9 9 11 15 18
15 15 16 16 17 17 17 17 16 16 17 17 17 17 17 18 17 17 16 15 15 14 14 13 12 12 11 12 13 13 12 10 10 10 9 9 8 8 9 10 12 16
14 14 15 16 17 17 17 17 17 17 17 17 17 17 17 17 17 16 16 15 15 14 13 12 12 12 12 12 13 13 13 11 11 11 10 9 8 8 8 8 10 13
14 14 15 16 17 17 17 17 17 17 17 17 16 16 17 17 17 16 16 16 15 14 13 11 11 12 12 12 13 14 13 12 11 11 11 10 9 8 8 8 9 11
15 15 15 15 16 17 17 17 17 17 17 17 17 16 17 17 17 17 16 16 15 14 13 11 11 11 12 12 13 14 14 13 12 12 12 11 10 9 8 8 9 11
15 15 15 15 16 16 17 17 17 17 17 17 17 16 17 17 18 18 16 16 15 14 13 11 11 11 12 12 13 14 14 13 13 13 13 12 10 9 9 9 9 11
15 15 15 15 15 16 16 17 17 17 18 18 18 17 17 17 18 18 17 16 16 15 13 11 11 11 12 13 13 13 13 13 14 14 13 13 11 10 10 11 11 11
Wind_Direction
348 352 360 360 354 349 343 335 330 327 320 311 306 304 300 295 291 285 279 275 275 274 275 276 276 274 271 268 263 258 254 251 248 247 247 247 245 241 238 238 240 240
347 350 357 356 351 346 341 334 329 329 323 312 307 305 300 296 291 284 278 276 274 270 270 272 275 277 277 275 273 269 265 261 257 253 251 249 248 246 243 241 241 240
347 349 352 351 347 345 340 331 327 329 324 313 309 306 301 297 293 289 285 279 274 270 267 267 268 271 275 276 277 276 274 272 268 264 260 256 254 251 248 247 245 243
346 346 347 347 346 345 340 329 325 330 326 315 310 309 305 301 300 299 294 285 281 279 276 273 270 269 271 274 276 276 275 275 272 269 266 264 262 258 253 250 248 246
343 342 343 345 345 346 342 332 327 331 329 317 311 310 307 305 307 306 298 292 291 293 290 285 281 277 274 272 271 269 268 270 271 270 269 268 267 264 259 254 249 246
341 340 341 343 346 347 344 338 332 333 331 320 312 310 308 309 313 308 300 297 298 297 295 292 289 287 283 277 270 264 260 261 264 267 268 267 267 265 264 261 254 246
338 338 340 342 345 348 345 339 335 333 329 319 311 309 309 312 314 309 303 303 303 301 298 295 294 292 289 284 278 272 264 258 257 259 262 264 264 264 263 263 258 246
335 335 337 340 344 347 343 337 334 333 328 319 312 308 308 312 311 307 305 306 307 305 303 300 297 295 292 288 283 278 273 266 259 256 257 259 261 263 263 261 258 248
332 333 335 338 344 344 337 333 334 333 327 321 313 307 307 310 310 309 309 309 308 306 305 303 302 301 298 295 289 283 276 270 265 259 256 256 257 260 261 260 256 246
330 331 332 336 343 338 329 331 336 333 326 322 315 307 307 311 312 311 310 309 308 306 306 306 308 309 309 307 303 297 288 276 270 264 260 257 256 256 257 257 253 244
329 329 330 335 339 331 327 335 340 334 327 324 318 311 311 313 312 310 309 310 310 309 309 310 313 316 316 315 311 306 300 289 277 269 264 262 259 256 254 252 251 244
327 327 329 334 333 328 332 341 342 337 330 325 320 314 313 312 309 308 308 310 311 310 311 314 318 320 321 320 315 310 305 296 286 275 268 265 261 258 254 250 249 241
325 328 330 331 329 331 338 342 343 339 330 325 322 317 313 310 307 304 304 306 308 309 310 314 318 320 322 320 316 312 308 301 293 283 274 269 263 259 255 248 245 236
325 328 328 329 332 336 339 340 341 338 329 324 321 316 313 308 304 301 298 300 304 306 308 312 316 317 319 318 315 315 311 305 298 289 280 273 265 260 255 248 242 232
324 326 327 332 336 338 338 338 336 333 327 320 315 314 313 309 304 300 297 297 298 300 304 310 313 314 315 314 313 313 312 308 301 292 284 276 268 262 256 249 240 227
323 325 329 335 338 337 336 335 332 329 325 317 311 312 313 311 309 305 301 298 296 296 298 302 306 308 309 310 311 311 311 310 305 296 287 278 271 265 257 252 239 223
322 326 331 336 338 337 335 333 330 326 322 316 312 310 310 310 311 310 308 304 299 294 291 292 298 302 303 306 308 307 309 310 308 302 293 281 275 268 261 256 240 221
324 328 332 335 337 337 335 331 327 323 320 319 317 314 311 310 311 311 311 309 303 295 287 285 289 294 296 299 301 302 305 308 310 308 298 286 278 273 268 260 243 227
326 329 331 334 336 338 335 330 325 322 322 322 321 318 314 312 310 310 311 313 310 301 290 282 282 285 286 288 290 294 299 303 308 309 303 292 282 276 270 259 246 236
324 326 329 333 336 337 334 330 327 325 324 324 322 319 315 312 310 310 311 314 314 308 296 283 276 276 277 278 282 287 292 295 300 304 305 301 291 281 271 259 248 240
319 324 329 332 332 332 331 331 331 329 326 324 321 318 315 312 311 311 312 312 313 311 303 289 275 270 269 271 274 280 285 290 293 297 301 304 302 293 282 269 255 244
316 320 324 326 327 329 331 331 332 331 327 324 321 318 315 314 313 313 312 311 312 312 307 293 275 266 265 264 267 274 280 285 289 294 298 299 301 300 296 286 271 255
313 315 317 320 325 328 329 330 330 330 328 325 323 321 318 315 315 315 314 313 313 313 311 299 277 264 261 261 263 268 274 279 284 289 292 295 297 298 299 294 282 270
313 312 314 317 321 324 325 327 328 329 329 327 326 324 322 319 318 317 315 312 312 314 314 307 286 265 258 258 260 263 268 272 276 281 285 291 295 296 297 294 282 273
311 311 312 314 316 319 322 325 327 329 329 328 327 326 325 324 322 319 315 311 310 312 315 311 294 271 257 254 257 261 264 266 269 273 279 286 291 292 289 284 277 272
309 310 312 312 313 316 319 323 327 329 329 328 329 329 328 326 323 319 315 311 310 311 313 310 298 279 262 256 256 259 262 263 264 268 273 280 287 287 281 278 278 278